User: anonymous   Login
Location: Darlington Observatory
(36.4817°N, 105.8156°W)
Time: 19:12:03
(UTC-06:00)
Language:

Cosmos 2278 Rocket - Orbit

View from above orbital plane
View from above orbital plane
View from above satellite
View from above satellite

Ground track
Ground track

The orbit data is extracted from the following two-line orbital elements,

1 23088U 94023B   15247.18270269 -.00000302  00000-0 -13206-3 0  9995
2 23088  70.9986 210.4966 0003817 330.9772  29.1137 14.14623617103338
Epoch (UTC): 04 September 2015 04:23:05
Eccentricity: 0.0003817
inclination: 70.9986°
perigee height: 841 km
apogee height: 846 km
right ascension of ascending node: 210.4966°
argument of perigee: 330.9772°
revolutions per day: 14.14623617
mean anomaly at epoch: 29.1137°
orbit number at epoch: 10333

The dashed part of the orbit path shows where the satellite is in the earth's shadow,  

DLR